QPF
0.06 0.07 0.07 0.07 0.06 0.07 0.08 0.07 0.05 0.04 0.03 0.03 0.03 0.02 0.03 0.04 0.04 0.04 0.04 0.03 0.03 0.03 0.04 0.05 0.06 0.06 0.07 0.09 0.10 0.10 0.08 0.07 0.07 0.07 0.09 0.11 0.12 0.11 0.10 0.09 0.06 0.06 0.07
0.08 0.07 0.06 0.06 0.07 0.07 0.07 0.05 0.03 0.03 0.03 0.02 0.01 0.01 0.02 0.03 0.03 0.03 0.03 0.02 0.02 0.02 0.02 0.03 0.03 0.04 0.04 0.05 0.07 0.07 0.07 0.05 0.05 0.05 0.05 0.07 0.09 0.08 0.08 0.10 0.09 0.08 0.07
0.08 0.07 0.07 0.05 0.06 0.05 0.05 0.03 0.03 0.03 0.02 0.02 0.02 0.02 0.01 0.02 0.03 0.03 0.03 0.03 0.02 0.01 0.01 0.01 0.02 0.03 0.03 0.03 0.04 0.05 0.05 0.06 0.05 0.05 0.04 0.04 0.06 0.07 0.07 0.09 0.10 0.09 0.07
0.08 0.06 0.06 0.05 0.05 0.04 0.03 0.03 0.03 0.04 0.03 0.02 0.02 0.02 0.02 0.02 0.02 0.03 0.04 0.03 0.03 0.02 0.01 0.01 0.01 0.02 0.02 0.03 0.03 0.04 0.04 0.06 0.06 0.05 0.04 0.04 0.04 0.04 0.05 0.06 0.07 0.07 0.07
0.05 0.05 0.04 0.05 0.05 0.04 0.03 0.02 0.03 0.03 0.03 0.04 0.04 0.03 0.02 0.02 0.02 0.02 0.02 0.02 0.02 0.02 0.02 0.01 0.01 0.02 0.02 0.02 0.03 0.04 0.05 0.06 0.06 0.05 0.04 0.03 0.03 0.04 0.04 0.05 0.05 0.07 0.07
0.05 0.05 0.05 0.05 0.06 0.06 0.05 0.03 0.04 0.04 0.04 0.03 0.02 0.03 0.02 0.02 0.02 0.01 0.01 0.02 0.02 0.02 0.02 0.02 0.01 0.01 0.02 0.02 0.03 0.04 0.05 0.06 0.06 0.06 0.06 0.06 0.04 0.03 0.03 0.03 0.03 0.04 0.05
0.05 0.04 0.05 0.06 0.06 0.07 0.06 0.05 0.05 0.05 0.04 0.03 0.03 0.03 0.03 0.02 0.02 0.02 0.03 0.03 0.02 0.02 0.03 0.02 0.02 0.01 0.02 0.01 0.02 0.03 0.04 0.04 0.05 0.06 0.07 0.07 0.07 0.05 0.04 0.03 0.03 0.03 0.03
0.05 0.05 0.06 0.06 0.06 0.06 0.05 0.05 0.05 0.04 0.04 0.03 0.03 0.04 0.05 0.05 0.03 0.02 0.02 0.01 0.02 0.02 0.04 0.04 0.04 0.03 0.02 0.02 0.01 0.02 0.03 0.04 0.03 0.04 0.05 0.06 0.06 0.06 0.05 0.05 0.04 0.03 0.03
0.06 0.05 0.05 0.06 0.08 0.08 0.08 0.07 0.06 0.06 0.05 0.05 0.04 0.05 0.06 0.06 0.04 0.02 0.01 0.01 0.02 0.03 0.03 0.03 0.04 0.04 0.04 0.03 0.02 0.02 0.02 0.03 0.03 0.03 0.03 0.04 0.05 0.05 0.06 0.07 0.07 0.05 0.04
0.04 0.04 0.04 0.04 0.06 0.09 0.11 0.10 0.08 0.07 0.06 0.05 0.05 0.05 0.06 0.05 0.04 0.03 0.02 0.01 0.01 0.02 0.02 0.03 0.02 0.03 0.04 0.04 0.03 0.02 0.01 0.02 0.02 0.03 0.04 0.03 0.03 0.03 0.05 0.08 0.09 0.09 0.07
0.03 0.03 0.03 0.04 0.05 0.06 0.07 0.08 0.07 0.06 0.06 0.05 0.06 0.06 0.04 0.04 0.04 0.03 0.02 0.02 0.02 0.02 0.01 0.01 0.02 0.02 0.03 0.03 0.03 0.02 0.02 0.02 0.02 0.02 0.03 0.03 0.03 0.03 0.03 0.05 0.08 0.09 0.11
0.03 0.03 0.03 0.04 0.04 0.04 0.04 0.04 0.04 0.03 0.03 0.03 0.04 0.04 0.04 0.04 0.04 0.04 0.03 0.03 0.04 0.03 0.02 0.02 0.02 0.02 0.02 0.03 0.03 0.02 0.02 0.02 0.02 0.02 0.02 0.02 0.02 0.02 0.02 0.03 0.03 0.06 0.08
0.03 0.03 0.03 0.03 0.04 0.04 0.03 0.03 0.03 0.03 0.03 0.03 0.03 0.03 0.03 0.03 0.04 0.04 0.05 0.04 0.03 0.03 0.03 0.02 0.01 0.01 0.01 0.02 0.03 0.03 0.03 0.02 0.02 0.02 0.01 0.02 0.02 0.02 0.02 0.02 0.03 0.03 0.05
0.02 0.03 0.03 0.02 0.03 0.03 0.02 0.02 0.03 0.02 0.02 0.03 0.02 0.03 0.04 0.03 0.03 0.04 0.05 0.05 0.04 0.03 0.03 0.02 0.01 0.01 0.01 0.01 0.02 0.03 0.04 0.04 0.03 0.03 0.02 0.02 0.02 0.01 0.01 0.02 0.02 0.02 0.03
0.01 0.02 0.02 0.02 0.02 0.02 0.02 0.02 0.02 0.01 0.02 0.02 0.02 0.02 0.02 0.02 0.03 0.04 0.05 0.05 0.06 0.06 0.05 0.03 0.02 0.02 0.02 0.03 0.03 0.02 0.03 0.04 0.05 0.04 0.03 0.02 0.01 0.01 0.01 0.02 0.02 0.03 0.04
0.01 0.02 0.03 0.02 0.03 0.02 0.02 0.02 0.01 0.02 0.02 0.02 0.01 0.02 0.02 0.02 0.02 0.03 0.03 0.04 0.06 0.07 0.07 0.05 0.05 0.05 0.05 0.05 0.04 0.03 0.02 0.03 0.04 0.04 0.04 0.03 0.02 0.01 0.01 0.01 0.02 0.03 0.03
0.02 0.03 0.02 0.02 0.03 0.02 0.02 0.02 0.02 0.02 0.02 0.02 0.01 0.01 0.01 0.01 0.02 0.02 0.02 0.03 0.04 0.05 0.05 0.05 0.05 0.06 0.06 0.06 0.05 0.04 0.03 0.03 0.04 0.04 0.04 0.04 0.03 0.02 0.01 0.01 0.01 0.02 0.02
0.03 0.03 0.02 0.02 0.03 0.02 0.03 0.03 0.02 0.02 0.02 0.02 0.01 0.01 0.01 0.01 0.01 0.02 0.02 0.02 0.03 0.03 0.04 0.05 0.05 0.05 0.05 0.05 0.05 0.05 0.03 0.03 0.04 0.04 0.04 0.04 0.05 0.04 0.03 0.02 0.01 0.01 0.01
0.03 0.02 0.02 0.02 0.02 0.03 0.03 0.03 0.03 0.03 0.03 0.02 0.02 0.02 0.01 0.01 0.02 0.02 0.02 0.02 0.03 0.03 0.04 0.04 0.03 0.03 0.03 0.04 0.04 0.04 0.04 0.04 0.05 0.05 0.04 0.03 0.03 0.04 0.03 0.03 0.02 0.02 0.02
0.03 0.03 0.02 0.02 0.02 0.02 0.03 0.03 0.03 0.03 0.02 0.02 0.02 0.02 0.02 0.02 0.02 0.02 0.02 0.03 0.03 0.03 0.04 0.04 0.03 0.04 0.03 0.03 0.04 0.04 0.04 0.05 0.05 0.05 0.05 0.05 0.04 0.03 0.02 0.02 0.02 0.01 0.02
0.02 0.02 0.02 0.02 0.02 0.02 0.02 0.02 0.02 0.02 0.03 0.03 0.03 0.03 0.02 0.02 0.02 0.03 0.03 0.03 0.03 0.03 0.03 0.03 0.03 0.04 0.04 0.05 0.04 0.03 0.03 0.03 0.03 0.03 0.04 0.04 0.04 0.03 0.02 0.02 0.02 0.02 0.02
0.03 0.03 0.03 0.03 0.02 0.02 0.02 0.02 0.01 0.02 0.02 0.03 0.04 0.04 0.02 0.01 0.02 0.02 0.03 0.03 0.03 0.03 0.03 0.04 0.03 0.04 0.04 0.04 0.04 0.04 0.04 0.04 0.03 0.03 0.03 0.03 0.03 0.03 0.03 0.02 0.02 0.02 0.02
0.04 0.05 0.06 0.06 0.07 0.06 0.04 0.03 0.02 0.02 0.02 0.02 0.03 0.02 0.01 0.01 0.02 0.02 0.03 0.03 0.03 0.03 0.03 0.04 0.04 0.03 0.03 0.04 0.05 0.05 0.05 0.04 0.03 0.03 0.03 0.03 0.03 0.03 0.03 0.03 0.02 0.02 0.02
0.02 0.02 0.03 0.03 0.04 0.04 0.03 0.03 0.03 0.02 0.02 0.02 0.02 0.02 0.02 0.02 0.02 0.02 0.02 0.02 0.03 0.03 0.03 0.03 0.02 0.02 0.03 0.03 0.04 0.04 0.04 0.03 0.03 0.02 0.02 0.01 0.01 0.02 0.02 0.02 0.03 0.03 0.02
0.02 0.02 0.02 0.02 0.03 0.02 0.02 0.01 0.01 0.01 0.01 0.01 0.01 0.01 0.01 0.01 0.01 0.01 0.01 0.02 0.02 0.03 0.02 0.02 0.03 0.03 0.03 0.03 0.03 0.03 0.03 0.03 0.03 0.02 0.01 0.01 0.01 0.02 0.02 0.03 0.03 0.04 0.03
0.02 0.02 0.02 0.02 0.02 0.03 0.02 0.01 0.01 0.01 0.01 0.01 0.01 0.01 0.01 0.01 0.01 0.01 0.01 0.02 0.02 0.02 0.02 0.03 0.04 0.04 0.03 0.02 0.03 0.02 0.02 0.02 0.02 0.02 0.02 0.02 0.03 0.04 0.05 0.04 0.04 0.03 0.03
MSLP
1012.24 1012.66 1012.96 1013.16 1013.27 1013.34 1013.43 1013.57 1013.81 1014.14 1014.55 1015.03 1015.52 1015.99 1016.40 1016.74 1016.98 1017.13 1017.20 1017.21 1017.17 1017.09 1016.99 1016.87 1016.75 1016.62 1016.49 1016.35 1016.20 1016.05 1015.89 1015.72 1015.56 1015.40 1015.25 1015.13 1015.04 1014.98 1014.96 1014.98 1015.02 1015.07 1015.13
1012.36 1012.80 1013.13 1013.38 1013.56 1013.71 1013.86 1014.07 1014.36 1014.73 1015.17 1015.66 1016.15 1016.61 1017.01 1017.32 1017.52 1017.63 1017.66 1017.63 1017.56 1017.47 1017.37 1017.27 1017.18 1017.09 1016.99 1016.89 1016.77 1016.63 1016.48 1016.32 1016.15 1015.99 1015.84 1015.72 1015.62 1015.54 1015.50 1015.47 1015.45 1015.42 1015.39
1012.56 1013.00 1013.37 1013.67 1013.91 1014.13 1014.37 1014.64 1014.98 1015.38 1015.84 1016.33 1016.81 1017.26 1017.62 1017.90 1018.07 1018.14 1018.14 1018.09 1018.01 1017.92 1017.84 1017.78 1017.73 1017.68 1017.63 1017.56 1017.47 1017.36 1017.22 1017.06 1016.89 1016.73 1016.57 1016.44 1016.33 1016.24 1016.17 1016.10 1016.02 1015.93 1015.82
1012.82 1013.25 1013.63 1013.97 1014.27 1014.55 1014.85 1015.18 1015.55 1015.98 1016.44 1016.92 1017.39 1017.80 1018.14 1018.39 1018.54 1018.60 1018.60 1018.54 1018.48 1018.41 1018.36 1018.34 1018.33 1018.32 1018.31 1018.27 1018.21 1018.11 1017.98 1017.82 1017.65 1017.48 1017.33 1017.19 1017.06 1016.96 1016.86 1016.75 1016.64 1016.50 1016.33
1013.10 1013.50 1013.87 1014.23 1014.57 1014.89 1015.23 1015.59 1015.98 1016.41 1016.87 1017.33 1017.78 1018.17 1018.50 1018.74 1018.89 1018.96 1018.97 1018.95 1018.91 1018.88 1018.87 1018.88 1018.90 1018.93 1018.94 1018.93 1018.88 1018.79 1018.67 1018.51 1018.34 1018.17 1018.00 1017.85 1017.71 1017.58 1017.46 1017.34 1017.19 1017.03 1016.83
1013.37 1013.73 1014.08 1014.43 1014.78 1015.13 1015.48 1015.85 1016.24 1016.66 1017.09 1017.53 1017.95 1018.34 1018.66 1018.91 1019.09 1019.20 1019.25 1019.27 1019.27 1019.28 1019.30 1019.34 1019.39 1019.43 1019.46 1019.46 1019.42 1019.34 1019.22 1019.07 1018.90 1018.72 1018.54 1018.37 1018.21 1018.06 1017.92 1017.78 1017.62 1017.45 1017.25
1013.63 1013.93 1014.25 1014.59 1014.93 1015.27 1015.62 1015.97 1016.35 1016.73 1017.14 1017.55 1017.95 1018.32 1018.66 1018.93 1019.15 1019.30 1019.41 1019.48 1019.53 1019.57 1019.62 1019.68 1019.73 1019.79 1019.82 1019.83 1019.79 1019.72 1019.61 1019.47 1019.30 1019.12 1018.93 1018.74 1018.56 1018.38 1018.21 1018.05 1017.89 1017.72 1017.55
1013.88 1014.13 1014.42 1014.73 1015.06 1015.38 1015.71 1016.05 1016.39 1016.74 1017.10 1017.48 1017.85 1018.21 1018.55 1018.85 1019.11 1019.31 1019.47 1019.58 1019.68 1019.75 1019.81 1019.88 1019.93 1019.98 1020.02 1020.03 1020.01 1019.95 1019.86 1019.73 1019.58 1019.39 1019.19 1018.98 1018.77 1018.56 1018.36 1018.17 1018.00 1017.84 1017.69
1014.16 1014.38 1014.64 1014.94 1015.24 1015.56 1015.87 1016.17 1016.48 1016.79 1017.10 1017.43 1017.77 1018.11 1018.44 1018.75 1019.03 1019.26 1019.46 1019.61 1019.73 1019.82 1019.89 1019.95 1020.00 1020.05 1020.08 1020.10 1020.10 1020.06 1019.99 1019.89 1019.75 1019.58 1019.37 1019.14 1018.90 1018.65 1018.40 1018.18 1017.99 1017.82 1017.69
1014.50 1014.71 1014.96 1015.25 1015.55 1015.86 1016.16 1016.44 1016.71 1016.98 1017.24 1017.51 1017.80 1018.10 1018.40 1018.69 1018.97 1019.22 1019.42 1019.59 1019.72 1019.82 1019.89 1019.94 1019.99 1020.03 1020.06 1020.09 1020.10 1020.09 1020.05 1019.98 1019.86 1019.70 1019.49 1019.24 1018.97 1018.68 1018.40 1018.13 1017.90 1017.72 1017.58
1014.93 1015.13 1015.39 1015.69 1016.00 1016.32 1016.62 1016.89 1017.13 1017.35 1017.56 1017.77 1018.00 1018.23 1018.48 1018.74 1018.98 1019.21 1019.41 1019.57 1019.69 1019.78 1019.85 1019.90 1019.93 1019.97 1020.00 1020.03 1020.06 1020.07 1020.05 1020.00 1019.90 1019.76 1019.55 1019.30 1019.01 1018.69 1018.37 1018.06 1017.79 1017.57 1017.40
1015.42 1015.64 1015.92 1016.24 1016.57 1016.90 1017.21 1017.48 1017.71 1017.89 1018.06 1018.21 1018.36 1018.52 1018.70 1018.89 1019.08 1019.27 1019.43 1019.57 1019.68 1019.76 1019.82 1019.86 1019.89 1019.92 1019.94 1019.97 1019.99 1020.01 1020.00 1019.96 1019.88 1019.74 1019.55 1019.30 1019.01 1018.68 1018.33 1017.99 1017.68 1017.42 1017.21
1015.96 1016.21 1016.50 1016.84 1017.20 1017.55 1017.87 1018.15 1018.37 1018.54 1018.66 1018.75 1018.84 1018.93 1019.03 1019.14 1019.27 1019.40 1019.52 1019.63 1019.72 1019.79 1019.84 1019.87 1019.88 1019.90 1019.90 1019.91 1019.92 1019.91 1019.89 1019.84 1019.76 1019.63 1019.44 1019.21 1018.92 1018.61 1018.26 1017.92 1017.59 1017.29 1017.05
1016.51 1016.77 1017.08 1017.44 1017.81 1018.18 1018.52 1018.81 1019.03 1019.19 1019.29 1019.34 1019.37 1019.40 1019.43 1019.47 1019.54 1019.61 1019.69 1019.76 1019.83 1019.88 1019.92 1019.93 1019.93 1019.92 1019.90 1019.86 1019.82 1019.77 1019.71 1019.62 1019.52 1019.38 1019.20 1018.99 1018.74 1018.46 1018.15 1017.83 1017.51 1017.20 1016.92
1017.04 1017.30 1017.61 1017.96 1018.34 1018.72 1019.07 1019.37 1019.61 1019.77 1019.86 1019.90 1019.90 1019.88 1019.87 1019.85 1019.86 1019.89 1019.92 1019.97 1020.01 1020.05 1020.06 1020.06 1020.04 1019.99 1019.92 1019.82 1019.71 1019.58 1019.45 1019.31 1019.15 1019.00 1018.82 1018.64 1018.44 1018.21 1017.97 1017.70 1017.42 1017.13 1016.83
1017.52 1017.77 1018.06 1018.40 1018.76 1019.14 1019.49 1019.80 1020.06 1020.24 1020.35 1020.39 1020.39 1020.36 1020.31 1020.27 1020.24 1020.22 1020.23 1020.24 1020.26 1020.27 1020.27 1020.24 1020.19 1020.09 1019.95 1019.78 1019.58 1019.37 1019.14 1018.92 1018.71 1018.51 1018.34 1018.18 1018.03 1017.88 1017.71 1017.53 1017.31 1017.06 1016.78
1017.95 1018.18 1018.44 1018.75 1019.09 1019.44 1019.79 1020.11 1020.38 1020.59 1020.73 1020.80 1020.83 1020.81 1020.76 1020.71 1020.66 1020.61 1020.59 1020.57 1020.56 1020.55 1020.52 1020.46 1020.36 1020.21 1020.00 1019.75 1019.46 1019.15 1018.82 1018.51 1018.23 1017.99 1017.80 1017.66 1017.56 1017.48 1017.40 1017.30 1017.16 1016.97 1016.72
1018.34 1018.55 1018.78 1019.05 1019.36 1019.68 1020.01 1020.33 1020.62 1020.86 1021.04 1021.16 1021.22 1021.24 1021.21 1021.16 1021.10 1021.04 1020.98 1020.94 1020.89 1020.84 1020.77 1020.68 1020.53 1020.33 1020.07 1019.75 1019.37 1018.97 1018.56 1018.16 1017.81 1017.52 1017.30 1017.16 1017.09 1017.06 1017.04 1017.02 1016.95 1016.83 1016.63
1018.69 1018.90 1019.11 1019.35 1019.62 1019.91 1020.22 1020.53 1020.83 1021.09 1021.31 1021.48 1021.59 1021.64 1021.65 1021.61 1021.55 1021.48 1021.39 1021.31 1021.22 1021.13 1021.02 1020.88 1020.70 1020.46 1020.15 1019.77 1019.34 1018.87 1018.39 1017.92 1017.51 1017.16 1016.91 1016.75 1016.68 1016.67 1016.69 1016.72 1016.70 1016.62 1016.46
1019.02 1019.24 1019.45 1019.67 1019.90 1020.16 1020.44 1020.73 1021.03 1021.31 1021.56 1021.77 1021.92 1022.02 1022.05 1022.04 1021.98 1021.89 1021.78 1021.65 1021.52 1021.38 1021.23 1021.06 1020.84 1020.57 1020.24 1019.84 1019.38 1018.88 1018.35 1017.84 1017.37 1016.98 1016.68 1016.48 1016.37 1016.35 1016.37 1016.40 1016.40 1016.35 1016.21
1019.32 1019.57 1019.79 1020.00 1020.21 1020.44 1020.69 1020.95 1021.23 1021.51 1021.78 1022.01 1022.20 1022.33 1022.40 1022.40 1022.34 1022.24 1022.10 1021.94 1021.76 1021.58 1021.40 1021.19 1020.96 1020.68 1020.34 1019.95 1019.49 1018.98 1018.44 1017.91 1017.41 1016.96 1016.61 1016.35 1016.19 1016.12 1016.09 1016.09 1016.07 1016.01 1015.87
1019.56 1019.85 1020.10 1020.32 1020.52 1020.72 1020.93 1021.17 1021.42 1021.68 1021.94 1022.19 1022.39 1022.55 1022.63 1022.65 1022.60 1022.49 1022.33 1022.14 1021.93 1021.72 1021.50 1021.27 1021.03 1020.76 1020.44 1020.07 1019.64 1019.15 1018.63 1018.09 1017.57 1017.10 1016.69 1016.37 1016.13 1015.97 1015.87 1015.80 1015.73 1015.62 1015.46
1019.70 1020.06 1020.34 1020.57 1020.77 1020.95 1021.13 1021.33 1021.55 1021.78 1022.03 1022.26 1022.47 1022.64 1022.74 1022.78 1022.74 1022.62 1022.45 1022.25 1022.02 1021.78 1021.54 1021.30 1021.06 1020.80 1020.51 1020.18 1019.78 1019.34 1018.85 1018.33 1017.80 1017.30 1016.85 1016.46 1016.14 1015.90 1015.70 1015.55 1015.40 1015.23 1015.02
1019.73 1020.14 1020.47 1020.72 1020.92 1021.09 1021.25 1021.41 1021.58 1021.78 1022.00 1022.22 1022.42 1022.59 1022.71 1022.76 1022.73 1022.63 1022.47 1022.26 1022.02 1021.77 1021.52 1021.28 1021.04 1020.80 1020.54 1020.23 1019.89 1019.48 1019.03 1018.54 1018.02 1017.51 1017.02 1016.58 1016.19 1015.86 1015.58 1015.33 1015.10 1014.86 1014.60
1019.63 1020.08 1020.44 1020.73 1020.94 1021.11 1021.25 1021.38 1021.52 1021.68 1021.86 1022.06 1022.25 1022.42 1022.55 1022.61 1022.61 1022.53 1022.38 1022.18 1021.95 1021.70 1021.45 1021.21 1020.97 1020.74 1020.49 1020.22 1019.90 1019.53 1019.12 1018.66 1018.16 1017.65 1017.15 1016.67 1016.23 1015.84 1015.48 1015.16 1014.86 1014.56 1014.25
1019.39 1019.88 1020.28 1020.59 1020.83 1021.00 1021.13 1021.25 1021.37 1021.50 1021.66 1021.83 1022.01 1022.17 1022.30 1022.38 1022.40 1022.34 1022.22 1022.04 1021.82 1021.58 1021.33 1021.09 1020.85 1020.61 1020.37 1020.11 1019.81 1019.47 1019.08 1018.65 1018.18 1017.69 1017.19 1016.71 1016.25 1015.82 1015.42 1015.05 1014.70 1014.36 1014.02
Thickness
5737 5736 5734 5733 5733 5731 5730 5729 5730 5729 5729 5729 5729 5729 5729 5728 5727 5726 5723 5719 5717 5716 5715 5714 5713 5713 5712 5712 5711 5710 5710 5710 5709 5709 5708 5708 5707 5706 5705 5705 5704 5704 5703
5734 5733 5731 5730 5729 5728 5727 5726 5727 5726 5726 5726 5726 5725 5725 5725 5723 5721 5721 5718 5715 5714 5712 5711 5710 5709 5709 5708 5708 5707 5707 5706 5706 5705 5705 5704 5704 5703 5702 5702 5701 5701 5700
5730 5729 5729 5726 5726 5724 5723 5722 5722 5723 5722 5722 5722 5721 5721 5720 5719 5718 5717 5717 5715 5712 5710 5708 5707 5706 5706 5705 5704 5704 5703 5703 5702 5702 5701 5701 5700 5699 5699 5698 5698 5697 5697
5727 5725 5725 5724 5722 5721 5720 5719 5719 5719 5719 5718 5718 5718 5717 5716 5716 5715 5715 5714 5713 5712 5709 5706 5704 5703 5703 5702 5701 5701 5700 5699 5699 5699 5698 5698 5698 5697 5696 5696 5695 5694 5694
5723 5722 5721 5720 5718 5718 5718 5717 5716 5716 5714 5714 5714 5713 5714 5714 5713 5713 5711 5711 5709 5708 5707 5704 5702 5701 5700 5699 5698 5698 5698 5697 5696 5696 5695 5695 5694 5694 5693 5692 5692 5691 5690
5720 5719 5718 5716 5716 5715 5714 5713 5711 5710 5710 5710 5712 5711 5711 5712 5711 5710 5709 5708 5706 5705 5705 5703 5702 5700 5697 5696 5695 5695 5694 5694 5693 5692 5692 5691 5691 5690 5689 5688 5687 5687 5686
5717 5715 5715 5713 5713 5712 5711 5710 5709 5707 5706 5706 5705 5705 5707 5708 5707 5706 5705 5705 5704 5702 5701 5700 5700 5699 5697 5694 5692 5691 5691 5690 5690 5689 5688 5687 5687 5686 5685 5684 5683 5682 5681
5713 5713 5711 5711 5710 5709 5707 5706 5705 5705 5704 5703 5702 5700 5699 5701 5701 5704 5702 5701 5701 5700 5699 5698 5696 5694 5694 5693 5691 5688 5687 5686 5686 5685 5684 5683 5683 5682 5681 5680 5679 5678 5677
5710 5709 5708 5708 5707 5707 5705 5703 5702 5699 5698 5699 5701 5699 5696 5696 5698 5700 5699 5699 5697 5697 5696 5695 5693 5691 5690 5689 5688 5685 5684 5682 5681 5681 5680 5679 5678 5677 5677 5676 5675 5673 5672
5707 5706 5705 5704 5703 5704 5702 5701 5700 5698 5696 5695 5696 5696 5696 5696 5691 5692 5694 5696 5695 5693 5693 5692 5691 5689 5687 5686 5684 5682 5680 5678 5678 5677 5676 5675 5674 5673 5672 5672 5670 5669 5668
5704 5703 5701 5700 5699 5699 5698 5697 5695 5694 5694 5693 5693 5693 5692 5690 5690 5687 5687 5689 5691 5692 5691 5688 5687 5686 5685 5683 5682 5680 5677 5675 5674 5673 5672 5671 5670 5669 5668 5667 5666 5665 5664
5701 5699 5698 5696 5695 5695 5694 5693 5691 5690 5690 5690 5690 5690 5689 5688 5687 5686 5684 5683 5684 5687 5686 5685 5684 5684 5682 5681 5679 5676 5673 5671 5670 5669 5668 5667 5666 5665 5664 5663 5662 5661 5659
5698 5695 5695 5692 5692 5691 5690 5689 5687 5688 5687 5686 5685 5686 5687 5687 5686 5684 5681 5679 5678 5681 5681 5683 5682 5681 5679 5677 5675 5671 5669 5667 5666 5665 5664 5663 5662 5661 5660 5659 5657 5656 5655
5696 5693 5691 5690 5689 5688 5687 5686 5686 5685 5684 5682 5683 5682 5682 5684 5683 5681 5678 5674 5673 5676 5677 5676 5679 5677 5675 5673 5671 5667 5667 5664 5663 5661 5660 5659 5658 5657 5655 5654 5653 5652 5650
5693 5690 5689 5687 5686 5685 5684 5682 5682 5681 5680 5680 5680 5678 5678 5679 5679 5678 5675 5673 5669 5667 5670 5673 5673 5673 5670 5668 5666 5664 5663 5661 5659 5658 5656 5655 5654 5653 5651 5650 5649 5647 5646
5689 5687 5685 5684 5682 5681 5680 5678 5679 5678 5676 5675 5674 5673 5672 5674 5674 5673 5672 5671 5669 5666 5666 5670 5668 5669 5666 5664 5661 5660 5659 5657 5656 5654 5653 5651 5650 5648 5647 5646 5644 5643 5641
5685 5683 5682 5680 5679 5677 5676 5674 5675 5674 5672 5671 5670 5669 5668 5668 5669 5669 5669 5667 5666 5664 5661 5663 5664 5663 5660 5658 5656 5655 5655 5654 5655 5651 5649 5647 5646 5644 5643 5641 5640 5637 5636
5682 5680 5678 5676 5675 5674 5672 5671 5670 5669 5668 5667 5667 5666 5665 5665 5663 5663 5663 5663 5662 5660 5658 5655 5657 5657 5654 5653 5651 5650 5651 5652 5650 5648 5645 5643 5642 5640 5639 5637 5635 5633 5631
5677 5675 5673 5672 5671 5670 5669 5668 5666 5665 5664 5664 5663 5662 5662 5661 5659 5660 5658 5659 5659 5658 5656 5653 5653 5652 5651 5649 5647 5647 5647 5645 5646 5645 5642 5639 5637 5636 5634 5632 5630 5628 5626
5672 5671 5669 5668 5667 5666 5665 5664 5662 5661 5660 5660 5659 5658 5658 5657 5656 5655 5655 5654 5654 5653 5652 5651 5650 5649 5647 5646 5643 5643 5642 5642 5642 5642 5639 5637 5634 5632 5631 5628 5626 5624 5621
5668 5666 5665 5663 5662 5661 5660 5659 5658 5657 5656 5655 5654 5654 5654 5653 5651 5650 5652 5651 5650 5649 5649 5648 5646 5645 5644 5640 5640 5639 5638 5637 5637 5637 5635 5634 5633 5631 5629 5625 5622 5619 5616
5662 5661 5659 5658 5657 5657 5654 5651 5650 5651 5651 5650 5650 5649 5649 5648 5646 5644 5643 5642 5641 5642 5643 5642 5642 5640 5637 5637 5635 5634 5633 5632 5631 5633 5630 5630 5630 5629 5627 5625 5620 5616 5612
5656 5655 5654 5653 5652 5650 5646 5644 5642 5643 5645 5645 5645 5644 5646 5647 5644 5644 5640 5637 5636 5634 5633 5635 5636 5635 5634 5633 5630 5629 5628 5627 5627 5628 5625 5625 5627 5625 5624 5621 5616 5611 5608
5650 5649 5649 5649 5647 5645 5641 5638 5636 5637 5639 5640 5640 5640 5640 5640 5640 5638 5637 5637 5636 5634 5631 5629 5630 5630 5630 5628 5626 5624 5623 5622 5622 5623 5622 5620 5623 5621 5621 5618 5612 5608 5605
5646 5645 5645 5644 5642 5640 5636 5633 5629 5633 5635 5636 5636 5636 5635 5635 5632 5629 5630 5631 5631 5631 5629 5627 5625 5624 5622 5620 5619 5618 5618 5619 5620 5621 5620 5617 5618 5617 5617 5615 5611 5605 5602
5642 5642 5641 5640 5638 5637 5632 5629 5625 5630 5631 5632 5632 5632 5629 5629 5626 5623 5625 5626 5626 5626 5626 5624 5621 5619 5619 5617 5614 5613 5615 5615 5616 5616 5617 5613 5613 5612 5612 5612 5609 5605 5600